Regional Weather Roundup
Issued by NWS

Home | Current Version | Previous Version | Graphics & Text | Print | Product List | Glossary On
Versions: 1 2 3 4 5 6 7 8 9 10 11 12 13 14 15 16 17 18 19 20 21 22 23 24 25 26 27 28 29 30 31 32 33 34 35 36 37 38 39 40 41 42 43 44 45 46 47 48 49 50
000
ASUS44 KMEG 041010
RWRTN
TENNESSEE HOURLY STATE WEATHER ROUNDUP
NATIONAL WEATHER SERVICE MEMPHIS TN
500 AM CDT MON MAY 04 2015

TNZ002-004-019-021-049-052-054-088>092-041100-
WEST TENNESSEE

CITY           SKY/WX    TMP DP  RH WIND       PRES   REMARKS
MEMPHIS INTL   PTCLDY    63  55  75 S7        30.11R
NWS MEMPHIS      N/A     62 N/A N/A MISG        N/A
JACKSON        PTCLDY    64  52  64 S7        30.12R
DYERSBURG      CLEAR     61  43  51 CALM      30.12R
PARIS          CLEAR     57  48  72 S6        30.13R
LEXINGTON      PTCLDY    50  50 100 CALM      30.14R
$$

TNZ008-025-027-028-033-062-065-066-041100-
NORTH MIDDLE TENNESSEE

CITY           SKY/WX    TMP DP  RH WIND       PRES   REMARKS
NASHVILLE      PTCLDY    56  50  80 CALM      30.17R
CLARKSVILLE    MOCLDY    56  52  86 SE3       30.13S
SMYRNA         CLEAR     53  50  90 SE3       30.18R
COOKEVILLE     CLEAR     46  46 100 CALM      30.19R
CROSSVILLE     CLEAR     52  45  77 CALM      30.24R
$$

TNZ061-075-076-078-094-096-097-041100-
SOUTH MIDDLE TENNESSEE

CITY           SKY/WX    TMP DP  RH WIND       PRES   REMARKS
FAYETTEVILLE   CLEAR     55  48  76 CALM      30.19R
TULLAHOMA      CLEAR     48  46  93 CALM      30.20R
WINCHESTER     CLEAR     55  48  76 CALM      30.20R
MCMINNVILLE    CLEAR     48  48 100 CALM      30.20R
COLUMBIA       CLEAR     52  52 100 CALM      30.16R
SHELBYVILLE    CLEAR     54  52  94 E3        30.19R
$$

TNZ017-018-042-046-047-041100-
NORTHEAST TENNESSEE

CITY           SKY/WX    TMP DP  RH WIND       PRES   REMARKS
TRI CITIES     PTCLDY    50  48  93 CALM      30.24R
ELIZABETHTON   SUNNY     52  45  76 NE3       30.25R
$$

TNZ012-013-036-069-073-074-041100-
CENTRAL EAST TENNESSEE

CITY           SKY/WX    TMP DP  RH WIND       PRES   REMARKS
KNOXVILLE      PTCLDY    53  49  86 CALM      30.21R
OAK RIDGE      CLEAR     51  48  89 CALM      30.24R
GATLINBURG     SUNNY     48  46  93 CALM      30.22R
MORRISTOWN     SUNNY     52  48  87 CALM      30.24R
$$

TNZ083-085-099-041100-
SOUTHEAST TENNESSEE

CITY           SKY/WX    TMP DP  RH WIND       PRES   REMARKS
CHATTANOOGA    PTCLDY    53  50  89 CALM      30.21R
$$

SKY/WX REPORTED AS FAIR MEANS FEW OR NO CLOUDS BELOW
12 THOUSAND FEET.



USA.gov is the U.S. government's official web portal to all federal, state and local government web resources and services.